Location: Unspecified
(0.0000°N, 0.0000°E)
Time: 23:41:19
(UTC+00:00)

Vanguard 2 Rocket - Pass Details

Date: 12 December 2017
Orbit: 553 x 3328 km, 32.9° (Epoch: 24 April)

Event Time Altitude Azimuth Distance (km) Brightness Sun altitude
Rises 21:35:02 0° 309° (NW) 6,106 11.2 -49.1°
Reaches altitude 10° 21:41:19 10° 327° (NNW) 5,577 10.8 -50.3°
Enters shadow 21:43:59 13° 336° (NNW) 5,457 10.7 -50.8°
